• In Kazakhstan
  • List of Countries
  • For 7 days
  • Water Temperature
  • Satellite Maps
  • Weather Map
  • News
  • Weather Widgets
  • user-avatar
    Login

    Hourly Weather Gaziantep

    Today, 19 September, Tuesday

    Time Temperature Precipitation Wind Pressure Humidity
    00:00 +24°C° 0 mm 2 mps 671 mmHg 66%
    01:00 +24°C° 0 mm 2 mps 670 mmHg 68%
    02:00 +23°C° 0 mm 1 mps 670 mmHg 67%
    03:00 +23°C° 0 mm 1 mps 670 mmHg 67%
    04:00 +23°C° 0 mm 1 mps 670 mmHg 67%
    05:00 +22°C° 0 mm 1 mps 670 mmHg 67%
    06:00 +24°C° 0 mm 1 mps 671 mmHg 59%
    07:00 +26°C° 0 mm 1 mps 671 mmHg 50%
    08:00 +28°C° 0 mm 1 mps 672 mmHg 37%
    09:00 +30°C° 0 mm 2 mps 672 mmHg 32%
    10:00 +31°C° 0 mm 2 mps 673 mmHg 26%
    11:00 +34°C° 0 mm 3 mps 673 mmHg 21%
    12:00 +35°C° 0 mm 3 mps 673 mmHg 19%
    13:00 +35°C° 0 mm 3 mps 673 mmHg 18%
    14:00 +35°C° 0 mm 4 mps 672 mmHg 17%
    15:00 +35°C° 0 mm 3 mps 672 mmHg 19%
    16:00 +34°C° 0 mm 3 mps 672 mmHg 21%
    17:00 +33°C° 0 mm 3 mps 672 mmHg 22%
    18:00 +30°C° 0 mm 3 mps 672 mmHg 28%
    19:00 +29°C° 0 mm 2 mps 672 mmHg 34%
    20:00 +27°C° 0 mm 1 mps 672 mmHg 40%
    21:00 +26°C° 0 mm 1 mps 672 mmHg 43%
    22:00 +25°C° 0 mm 1 mps 672 mmHg 47%
    23:00 +25°C° 0 mm 1 mps 672 mmHg 50%

    Tomorrow, 20 September, Wednesday

    Time Temperature Precipitation Wind Pressure Humidity
    00:00 +24°C° 0 mm 2 mps 671 mmHg 52%
    01:00 +24°C° 0 mm 2 mps 671 mmHg 53%
    02:00 +23°C° 0 mm 2 mps 671 mmHg 54%
    03:00 +23°C° 0 mm 2 mps 671 mmHg 54%
    04:00 +23°C° 0 mm 2 mps 671 mmHg 53%
    05:00 +21°C° 0 mm 2 mps 671 mmHg 53%
    06:00 +24°C° 0 mm 2 mps 671 mmHg 45%
    07:00 +26°C° 0 mm 2 mps 672 mmHg 37%
    08:00 +28°C° 0 mm 2 mps 673 mmHg 30%
    09:00 +30°C° 0 mm 2 mps 673 mmHg 25%
    10:00 +33°C° 0 mm 3 mps 673 mmHg 21%
    11:00 +34°C° 0 mm 3 mps 673 mmHg 17%
    12:00 +35°C° 0.1 mm 3 mps 673 mmHg 16%
    13:00 +35°C° 0.1 mm 3 mps 673 mmHg 16%
    14:00 +35°C° 0.1 mm 3 mps 673 mmHg 16%
    15:00 +34°C° 0.2 mm 4 mps 672 mmHg 22%
    16:00 +33°C° 0.2 mm 4 mps 672 mmHg 27%
    17:00 +30°C° 0.2 mm 4 mps 671 mmHg 32%
    18:00 +29°C° 0.1 mm 4 mps 671 mmHg 42%
    19:00 +27°C° 0.1 mm 4 mps 671 mmHg 51%
    20:00 +25°C° 0.1 mm 3 mps 671 mmHg 61%
    21:00 +24°C° 0 mm 3 mps 671 mmHg 64%
    22:00 +24°C° 0 mm 3 mps 671 mmHg 68%
    23:00 +22°C° 0 mm 3 mps 671 mmHg 71%

    Day after tomorrow, 21 September, Thursday

    Time Temperature Precipitation Wind Pressure Humidity
    00:00 +22°C° 0 mm 3 mps 671 mmHg 73%
    01:00 +21°C° 0 mm 3 mps 670 mmHg 75%
    02:00 +21°C° 0 mm 3 mps 670 mmHg 76%
    03:00 +21°C° 0 mm 2 mps 670 mmHg 77%
    04:00 +20°C° 0 mm 2 mps 670 mmHg 78%
    05:00 +20°C° 0 mm 2 mps 670 mmHg 79%
    06:00 +21°C° 0 mm 2 mps 671 mmHg 72%
    07:00 +24°C° 0 mm 2 mps 671 mmHg 65%
    08:00 +25°C° 0 mm 2 mps 672 mmHg 58%
    09:00 +27°C° 0 mm 2 mps 672 mmHg 49%
    10:00 +28°C° 0 mm 2 mps 672 mmHg 41%
    11:00 +30°C° 0 mm 2 mps 672 mmHg 33%
    12:00 +31°C° 0 mm 3 mps 672 mmHg 31%
    13:00 +33°C° 0 mm 3 mps 672 mmHg 28%
    14:00 +34°C° 0 mm 3 mps 672 mmHg 26%
    15:00 +32°C° 0 mm 4 mps 671 mmHg 32%
    16:00 +30°C° 0 mm 4 mps 671 mmHg 38%
    17:00 +29°C° 0 mm 5 mps 671 mmHg 44%
    18:00 +28°C° 0 mm 4 mps 671 mmHg 52%
    19:00 +26°C° 0 mm 4 mps 671 mmHg 60%
    20:00 +25°C° 0 mm 4 mps 671 mmHg 67%
    21:00 +23°C° 0 mm 4 mps 671 mmHg 70%
    22:00 +23°C° 0 mm 4 mps 671 mmHg 72%
    23:00 +22°C° 0 mm 3 mps 670 mmHg 74%

    22 September, Friday

    Time Temperature Precipitation Wind Pressure Humidity
    00:00 +21°C° 0 mm 3 mps 670 mmHg 76%
    01:00 +21°C° 0 mm 3 mps 670 mmHg 77%
    02:00 +21°C° 0 mm 3 mps 670 mmHg 78%
    03:00 +20°C° 0 mm 3 mps 670 mmHg 80%
    04:00 +20°C° 0 mm 3 mps 670 mmHg 81%
    05:00 +19°C° 0 mm 2 mps 670 mmHg 82%
    06:00 +21°C° 0 mm 3 mps 670 mmHg 73%
    07:00 +22°C° 0 mm 3 mps 671 mmHg 63%
    08:00 +25°C° 0 mm 3 mps 671 mmHg 54%
    09:00 +27°C° 0 mm 4 mps 672 mmHg 44%
    10:00 +29°C° 0 mm 4 mps 672 mmHg 35%
    11:00 +30°C° 0 mm 5 mps 672 mmHg 26%
    12:00 +32°C° 0 mm 6 mps 672 mmHg 24%
    13:00 +32°C° 0 mm 6 mps 672 mmHg 22%
    14:00 +32°C° 0 mm 7 mps 672 mmHg 20%
    15:00 +29°C° 0 mm 6 mps 672 mmHg 25%
    16:00 +28°C° 0 mm 6 mps 672 mmHg 30%
    17:00 +27°C° 0 mm 6 mps 671 mmHg 35%
    18:00 +25°C° 0 mm 5 mps 671 mmHg 43%
    19:00 +22°C° 0 mm 5 mps 671 mmHg 51%
    20:00 +21°C° 0 mm 4 mps 672 mmHg 60%
    21:00 +20°C° 0 mm 4 mps 671 mmHg 62%
    22:00 +19°C° 0 mm 4 mps 671 mmHg 65%
    23:00 +18°C° 0 mm 3 mps 671 mmHg 68%

    23 September, Saturday

    Time Temperature Precipitation Wind Pressure Humidity
    00:00 +18°C° 0 mm 3 mps 671 mmHg 69%
    01:00 +17°C° 0 mm 3 mps 671 mmHg 70%
    02:00 +17°C° 0 mm 3 mps 671 mmHg 71%
    03:00 +17°C° 0 mm 3 mps 671 mmHg 72%
    04:00 +16°C° 0 mm 2 mps 671 mmHg 73%
    05:00 +16°C° 0 mm 2 mps 671 mmHg 74%
    06:00 +18°C° 0 mm 2 mps 671 mmHg 67%
    07:00 +19°C° 0 mm 3 mps 672 mmHg 60%
    08:00 +21°C° 0 mm 3 mps 673 mmHg 53%
    09:00 +22°C° 0 mm 3 mps 673 mmHg 45%
    10:00 +25°C° 0 mm 3 mps 673 mmHg 37%
    11:00 +27°C° 0 mm 3 mps 674 mmHg 29%
    12:00 +28°C° 0 mm 3 mps 673 mmHg 26%
    13:00 +28°C° 0 mm 3 mps 673 mmHg 23%
    14:00 +29°C° 0 mm 4 mps 673 mmHg 21%
    15:00 +28°C° 0 mm 4 mps 673 mmHg 24%
    16:00 +27°C° 0 mm 4 mps 673 mmHg 27%
    17:00 +26°C° 0 mm 4 mps 673 mmHg 30%
    18:00 +25°C° 0 mm 4 mps 673 mmHg 36%
    19:00 +22°C° 0 mm 3 mps 672 mmHg 43%
    20:00 +20°C° 0 mm 3 mps 672 mmHg 50%
    21:00 +20°C° 0 mm 2 mps 672 mmHg 54%
    22:00 +19°C° 0 mm 2 mps 672 mmHg 59%
    23:00 +18°C° 0 mm 2 mps 672 mmHg 63%

    24 September, Sunday

    Time Temperature Precipitation Wind Pressure Humidity
    00:00 +18°C° 0 mm 2 mps 672 mmHg 66%
    01:00 +17°C° 0 mm 2 mps 671 mmHg 69%
    02:00 +16°C° 0 mm 1 mps 671 mmHg 71%
    03:00 +16°C° 0 mm 1 mps 671 mmHg 72%
    04:00 +16°C° 0 mm 1 mps 671 mmHg 73%
    05:00 +15°C° 0 mm 1 mps 671 mmHg 75%
    06:00 +18°C° 0 mm 1 mps 672 mmHg 66%
    07:00 +20°C° 0 mm 1 mps 673 mmHg 57%
    08:00 +21°C° 0 mm 1 mps 673 mmHg 48%
    09:00 +23°C° 0 mm 1 mps 673 mmHg 38%
    10:00 +25°C° 0 mm 1 mps 674 mmHg 29%
    11:00 +27°C° 0 mm 1 mps 674 mmHg 20%
    12:00 +28°C° 0 mm 1 mps 674 mmHg 17%
    13:00 +29°C° 0 mm 2 mps 674 mmHg 15%
    14:00 +29°C° 0 mm 2 mps 673 mmHg 13%
    15:00 +29°C° 0 mm 2 mps 673 mmHg 14%
    16:00 +28°C° 0 mm 2 mps 673 mmHg 16%
    17:00 +27°C° 0 mm 2 mps 673 mmHg 18%
    18:00 +26°C° 0 mm 2 mps 673 mmHg 21%
    19:00 +24°C° 0 mm 2 mps 673 mmHg 24%
    20:00 +23°C° 0 mm 1 mps 673 mmHg 26%
    21:00 +22°C° 0 mm 1 mps 672 mmHg 27%
    22:00 +22°C° 0 mm 1 mps 672 mmHg 28%
    23:00 +21°C° 0 mm 1 mps 672 mmHg 29%
    Show more